• Em Portugal
  • Lista de países
  • Para 7 dias
  • Temperatura da água
  • Mapas de satélite
  • Mapa do tempo
  • Widgets de tempo
  • user-avatar
    Iniciar Sessão

    Previsão horária em Sankt Pölten

    Hoje, 16 Agosto, Quinta-feira

    Tempo Temperatura Precipitação Vento Pressão Humidade
    00:00 +18°C° 0 mm 1 m/s 739 mmHg 85%
    01:00 +18°C° 0 mm 1 m/s 739 mmHg 84%
    02:00 +18°C° 0 mm 1 m/s 738 mmHg 85%
    03:00 +16°C° 0 mm 1 m/s 738 mmHg 86%
    04:00 +16°C° 0 mm 1 m/s 738 mmHg 87%
    05:00 +18°C° 0 mm 1 m/s 738 mmHg 84%
    06:00 +19°C° 0 mm 1 m/s 739 mmHg 80%
    07:00 +19°C° 0 mm 0 m/s 739 mmHg 77%
    08:00 +22°C° 0 mm 1 m/s 739 mmHg 69%
    09:00 +24°C° 0 mm 1 m/s 738 mmHg 61%
    10:00 +26°C° 0 mm 1 m/s 738 mmHg 53%
    11:00 +27°C° 0 mm 1 m/s 738 mmHg 50%
    12:00 +27°C° 0 mm 2 m/s 738 mmHg 48%
    13:00 +28°C° 0 mm 2 m/s 737 mmHg 46%
    14:00 +28°C° 0 mm 2 m/s 737 mmHg 46%
    15:00 +28°C° 0 mm 2 m/s 737 mmHg 47%
    16:00 +28°C° 0 mm 2 m/s 736 mmHg 47%
    17:00 +26°C° 0 mm 2 m/s 736 mmHg 55%
    18:00 +24°C° 0 mm 1 m/s 736 mmHg 62%
    19:00 +22°C° 0 mm 1 m/s 736 mmHg 70%
    20:00 +21°C° 0 mm 1 m/s 736 mmHg 72%
    21:00 +20°C° 0 mm 1 m/s 736 mmHg 74%
    22:00 +19°C° 0 mm 1 m/s 736 mmHg 76%
    23:00 +19°C° 0 mm 1 m/s 736 mmHg 78%

    Amanhã, 17 Agosto, Sexta-feira

    Tempo Temperatura Precipitação Vento Pressão Humidade
    00:00 +19°C° 0 mm 1 m/s 736 mmHg 80%
    01:00 +18°C° 0 mm 1 m/s 736 mmHg 81%
    02:00 +18°C° 0 mm 1 m/s 736 mmHg 83%
    03:00 +18°C° 0 mm 1 m/s 736 mmHg 84%
    04:00 +16°C° 0 mm 1 m/s 736 mmHg 85%
    05:00 +19°C° 0 mm 1 m/s 736 mmHg 81%
    06:00 +20°C° 0 mm 1 m/s 736 mmHg 77%
    07:00 +19°C° 0 mm 0 m/s 736 mmHg 73%
    08:00 +23°C° 0 mm 1 m/s 736 mmHg 66%
    09:00 +26°C° 0 mm 1 m/s 736 mmHg 58%
    10:00 +28°C° 0 mm 1 m/s 736 mmHg 51%
    11:00 +29°C° 0 mm 1 m/s 736 mmHg 48%
    12:00 +30°C° 0 mm 1 m/s 735 mmHg 45%
    13:00 +31°C° 0 mm 1 m/s 735 mmHg 42%
    14:00 +30°C° 0 mm 1 m/s 735 mmHg 42%
    15:00 +30°C° 0 mm 1 m/s 735 mmHg 43%
    16:00 +30°C° 0 mm 1 m/s 734 mmHg 43%
    17:00 +28°C° 0 mm 1 m/s 734 mmHg 51%
    18:00 +26°C° 0 mm 1 m/s 735 mmHg 59%
    19:00 +24°C° 0 mm 1 m/s 735 mmHg 67%
    20:00 +23°C° 0 mm 1 m/s 735 mmHg 69%
    21:00 +22°C° 0 mm 1 m/s 735 mmHg 71%
    22:00 +21°C° 0 mm 1 m/s 736 mmHg 73%
    23:00 +21°C° 0 mm 1 m/s 736 mmHg 74%

    Depois de amanhã, 18 Agosto, Sábado

    Tempo Temperatura Precipitação Vento Pressão Humidade
    00:00 +21°C° 0 mm 1 m/s 736 mmHg 75%
    01:00 +20°C° 0 mm 1 m/s 736 mmHg 76%
    02:00 +20°C° 0 mm 1 m/s 736 mmHg 78%
    03:00 +20°C° 0 mm 1 m/s 736 mmHg 79%
    04:00 +20°C° 0 mm 1 m/s 736 mmHg 81%
    05:00 +20°C° 0 mm 1 m/s 737 mmHg 80%
    06:00 +21°C° 0 mm 1 m/s 737 mmHg 79%
    07:00 +22°C° 0 mm 1 m/s 737 mmHg 77%
    08:00 +24°C° 0,3 mm 1 m/s 737 mmHg 73%
    09:00 +25°C° 0,3 mm 1 m/s 738 mmHg 69%
    10:00 +27°C° 0,3 mm 1 m/s 738 mmHg 64%
    11:00 +28°C° 0,7 mm 1 m/s 738 mmHg 62%
    12:00 +29°C° 0,7 mm 1 m/s 738 mmHg 60%
    13:00 +29°C° 0,7 mm 1 m/s 738 mmHg 57%
    14:00 +29°C° 0,5 mm 1 m/s 738 mmHg 58%
    15:00 +29°C° 0,5 mm 1 m/s 737 mmHg 58%
    16:00 +29°C° 0,5 mm 1 m/s 737 mmHg 59%
    17:00 +27°C° 0,3 mm 1 m/s 737 mmHg 65%
    18:00 +25°C° 0,3 mm 1 m/s 738 mmHg 70%
    19:00 +24°C° 0,3 mm 1 m/s 738 mmHg 76%
    20:00 +23°C° 0,3 mm 1 m/s 738 mmHg 79%
    21:00 +22°C° 0,3 mm 1 m/s 739 mmHg 81%
    22:00 +22°C° 0,3 mm 1 m/s 739 mmHg 83%
    23:00 +21°C° 0,2 mm 1 m/s 739 mmHg 85%

    19 Agosto, Domingo

    Tempo Temperatura Precipitação Vento Pressão Humidade
    00:00 +21°C° 0,2 mm 1 m/s 739 mmHg 87%
    01:00 +21°C° 0,2 mm 1 m/s 739 mmHg 88%
    02:00 +20°C° 0,2 mm 1 m/s 739 mmHg 89%
    03:00 +20°C° 0,2 mm 1 m/s 739 mmHg 91%
    04:00 +19°C° 0,2 mm 1 m/s 739 mmHg 92%
    05:00 +20°C° 0,1 mm 1 m/s 740 mmHg 90%
    06:00 +21°C° 0,1 mm 1 m/s 740 mmHg 88%
    07:00 +22°C° 0,1 mm 1 m/s 740 mmHg 85%
    08:00 +24°C° 0,2 mm 1 m/s 740 mmHg 79%
    09:00 +26°C° 0,2 mm 1 m/s 740 mmHg 72%
    10:00 +27°C° 0,2 mm 1 m/s 740 mmHg 65%
    11:00 +28°C° 0,5 mm 1 m/s 740 mmHg 63%
    12:00 +29°C° 0,5 mm 1 m/s 740 mmHg 60%
    13:00 +29°C° 0,5 mm 1 m/s 739 mmHg 57%
    14:00 +29°C° 0,4 mm 1 m/s 739 mmHg 57%
    15:00 +29°C° 0,4 mm 1 m/s 739 mmHg 57%
    16:00 +29°C° 0,4 mm 1 m/s 739 mmHg 56%
    17:00 +27°C° 0,2 mm 1 m/s 739 mmHg 63%
    18:00 +26°C° 0,2 mm 1 m/s 739 mmHg 69%
    19:00 +24°C° 0,2 mm 1 m/s 739 mmHg 75%
    20:00 +23°C° 0 mm 1 m/s 739 mmHg 78%
    21:00 +22°C° 0 mm 1 m/s 739 mmHg 80%
    22:00 +21°C° 0 mm 1 m/s 740 mmHg 83%
    23:00 +21°C° 0 mm 1 m/s 740 mmHg 84%

    20 Agosto, Segunda-feira

    Tempo Temperatura Precipitação Vento Pressão Humidade
    00:00 +21°C° 0 mm 1 m/s 739 mmHg 86%
    01:00 +20°C° 0 mm 1 m/s 739 mmHg 87%
    02:00 +20°C° 0 mm 1 m/s 739 mmHg 88%
    03:00 +20°C° 0 mm 1 m/s 739 mmHg 88%
    04:00 +19°C° 0 mm 1 m/s 739 mmHg 89%
    05:00 +21°C° 0 mm 1 m/s 739 mmHg 86%
    06:00 +22°C° 0 mm 1 m/s 740 mmHg 82%
    07:00 +21°C° 0 mm 0 m/s 740 mmHg 79%
    08:00 +25°C° 0,1 mm 1 m/s 740 mmHg 73%
    09:00 +26°C° 0,1 mm 1 m/s 740 mmHg 66%
    10:00 +28°C° 0,1 mm 1 m/s 740 mmHg 60%
    11:00 +29°C° 0,3 mm 1 m/s 739 mmHg 57%
    12:00 +30°C° 0,3 mm 1 m/s 739 mmHg 55%
    13:00 +31°C° 0,3 mm 1 m/s 739 mmHg 53%
    14:00 +30°C° 0,5 mm 1 m/s 739 mmHg 54%
    15:00 +30°C° 0,5 mm 1 m/s 738 mmHg 55%
    16:00 +30°C° 0,5 mm 1 m/s 738 mmHg 55%
    17:00 +28°C° 0,3 mm 1 m/s 738 mmHg 62%
    18:00 +26°C° 0,3 mm 1 m/s 738 mmHg 69%
    19:00 +22°C° 0,3 mm 0 m/s 738 mmHg 75%
    20:00 +24°C° 0,1 mm 1 m/s 738 mmHg 77%
    21:00 +23°C° 0,1 mm 1 m/s 738 mmHg 79%
    22:00 +22°C° 0,1 mm 1 m/s 739 mmHg 81%
    23:00 +22°C° 0 mm 1 m/s 739 mmHg 83%

    21 Agosto, Terça-feira

    Tempo Temperatura Precipitação Vento Pressão Humidade
    00:00 +22°C° 0 mm 1 m/s 739 mmHg 84%
    01:00 +21°C° 0 mm 1 m/s 739 mmHg 85%
    02:00 +21°C° 0 mm 1 m/s 739 mmHg 86%
    03:00 +21°C° 0 mm 1 m/s 739 mmHg 87%
    04:00 +21°C° 0 mm 1 m/s 739 mmHg 88%
    05:00 +21°C° 0 mm 1 m/s 739 mmHg 86%
    06:00 +22°C° 0 mm 1 m/s 739 mmHg 84%
    07:00 +23°C° 0 mm 1 m/s 739 mmHg 81%
    08:00 +25°C° 0 mm 1 m/s 739 mmHg 73%
    09:00 +27°C° 0 mm 1 m/s 739 mmHg 64%
    10:00 +29°C° 0 mm 1 m/s 739 mmHg 56%
    11:00 +30°C° 0,1 mm 1 m/s 738 mmHg 52%
    12:00 +31°C° 0,1 mm 1 m/s 738 mmHg 49%
    13:00 +32°C° 0,1 mm 1 m/s 738 mmHg 46%
    14:00 +32°C° 0,2 mm 1 m/s 737 mmHg 47%
    15:00 +31°C° 0,2 mm 1 m/s 737 mmHg 48%
    16:00 +31°C° 0,2 mm 1 m/s 737 mmHg 48%
    17:00 +27°C° 0,2 mm 0 m/s 737 mmHg 55%
    18:00 +25°C° 0,2 mm 0 m/s 737 mmHg 62%
    19:00 +23°C° 0,2 mm 0 m/s 736 mmHg 68%
    20:00 +22°C° 0,1 mm 0 m/s 737 mmHg 71%
    21:00 +23°C° 0,1 mm 1 m/s 737 mmHg 73%
    22:00 +23°C° 0,1 mm 1 m/s 737 mmHg 75%
    23:00 +22°C° 0 mm 1 m/s 737 mmHg 77%
    Mostrar mais